Location: Unspecified
(0.0000°N, 0.0000°E)
Time: 21:00:45
(UTC+02:00)

Vanguard 1 Rocket - Visible Passes

Search period start: 04 July 2015 00:00
Search period end: 14 July 2015 00:00
Orbit: 654 x 4224 km, 34.3° (Epoch: 01 July)

Date Brightness Start Highest point End Pass type
(mag) Time Alt. Az. Time Alt. Az. Time Alt. Az.
04 Jul 11.1 03:08:14 34° ESE 03:08:14 34° ESE 03:24:55 10° E visible
04 Jul 10.5 05:25:33 48° SW 05:36:52 82° SE 05:59:27 10° NE visible
04 Jul 9.9 20:35:28 10° SSW 20:37:44 11° SSW 20:40:05 10° S visible
05 Jul 11.7 02:01:17 15° ESE 02:01:17 15° ESE 02:05:11 10° ESE visible
05 Jul 10.5 04:18:35 60° SSE 04:21:00 62° SE 04:45:37 10° ENE visible
05 Jul 10.6 06:35:54 24° WSW 06:55:28 64° NW 07:15:01 10° NE visible
06 Jul 11.0 03:11:37 41° ESE 03:11:37 41° ESE 03:29:44 10° ENE visible
06 Jul 10.5 05:28:55 49° SW 05:39:59 86° NW 06:02:50 10° NE visible
07 Jul 11.6 02:04:36 19° ESE 02:04:36 19° ESE 02:11:06 10° E visible
07 Jul 10.4 04:21:54 70° S 04:24:13 73° SE 04:49:21 10° ENE visible
07 Jul 10.8 06:39:12 22° WSW 06:58:42 54° NW 07:18:06 10° NE visible
08 Jul 10.8 03:14:51 48° ESE 03:14:51 48° ESE 03:34:05 10° ENE visible
08 Jul 10.5 05:32:09 48° WSW 05:43:06 74° NW 06:06:02 10° NE visible
09 Jul 11.4 02:07:46 23° E 02:07:46 23° E 02:16:24 10° E visible
09 Jul 10.3 04:25:03 79° SSW 04:27:20 85° SE 04:52:48 10° NE visible
09 Jul 10.9 06:42:21 19° W 07:02:08 45° NW 07:21:07 10° NNE visible
10 Jul 10.7 03:17:56 56° E 03:17:56 56° E 03:38:01 10° ENE visible
10 Jul 10.6 05:35:13 44° W 05:46:18 63° NW 06:09:07 10° NE visible
11 Jul 11.3 02:10:45 28° E 02:10:45 28° E 02:21:09 10° ENE visible
11 Jul 10.3 04:28:02 78° W 04:30:25 83° NW 04:56:02 10° NE visible
11 Jul 11.1 06:45:19 15° W 07:05:50 38° NNW 07:24:08 10° NNE visible
12 Jul 10.5 03:20:49 63° E 03:20:49 63° E 03:41:36 10° ENE visible
12 Jul 10.7 05:38:06 38° W 05:49:41 53° NNW 06:12:05 10° NE visible
13 Jul 11.2 02:13:33 32° E 02:13:33 32° E 02:25:23 10° ENE visible
13 Jul 10.3 04:30:49 69° WNW 04:33:38 71° NW 04:59:06 10° NE visible
13 Jul 11.3 06:48:06 11° W 07:09:52 32° NNW 07:27:13 10° NNE visible
